Chatham, MA

3:04 PM EDT on March 26, 2017 (GMT -0400)
Chatham Municipal

Weather History for KCQX - October, 2013

Change the Weather History Date:

Tuesday, October 8, 2013

  Actual Average Record
Temperature  
Mean Temperature 60 °F -  
Max Temperature 66 °F 61 °F 73 °F (2005)
Min Temperature 55 °F 46 °F 35 °F (1999)
Degree Days  
Heating Degree Days 4    
Growing Degree Days 10 (Base 50)    
Moisture  
Dew Point 53 °F    
Average Humidity 76    
Maximum Humidity 100    
Minimum Humidity 50    
Precipitation  
Precipitation 0.19 in - - ()
Sea Level Pressure  
Sea Level Pressure 30.10 in    
Wind  
Wind Speed 6 mph (NNW)    
Max Wind Speed 13 mph    
Max Gust Speed 22 mph    
Visibility 8 miles    
Events Rain    
Averages and records for this station are not official NWS values.
T = Trace of Precipitation, MM = Missing Value Source: NWS Daily Summary

Daily Weather History Graph

Daily Weather History Graph

Search for Another Location

Airport or City:

Trip Planner

Search our weather history database for the weather conditions in past years. The results will help you decide how hot, cold, wet, or windy it might be!

Date:

Astronomy

Oct. 08, 2013 Rise Set
Actual Time 6:44 AM EDT 6:09 PM EDT
Civil Twilight 6:16 AM EDT 6:37 PM EDT
Nautical Twilight 5:44 AM EDT 7:09 PM EDT
Astronomical Twilight 5:12 AM EDT 7:41 PM EDT
Moon 10:38 AM EDT (10/8) 8:40 PM EDT (10/8)
Length of Visible Light 12h 20m
Length of Day
11h 25m
Waxing Crescent, 16% of the Moon is Illuminated
Oct 8
Waxing Crescent
Oct 11
First Quarter
Oct 18
Full
Oct 26
Last Quarter
Nov 3
New

Hourly Weather History & Observations

Time (EDT) Temp. Dew Point Humidity Pressure Visibility Wind Dir Wind Speed Gust Speed Precip Events Conditions
12:11 AM 64.4 °F 62.6 °F 94% 29.90 in 7.0 mi SSW 6.9 mph - 0.01 in Rain Light Rain
12:21 AM 64.4 °F 62.6 °F 94% 29.90 in 6.0 mi Variable 6.9 mph - 0.01 in Rain Light Rain
12:44 AM 64.4 °F 64.4 °F 100% 29.92 in 1.8 mi Variable 4.6 mph - 0.06 in Rain Heavy Rain
12:52 AM 66.0 °F 64.0 °F 93% 29.92 in 1.8 mi WSW 8.1 mph - 0.09 in Rain Rain
12:57 AM 66.2 °F 64.4 °F 94% 29.91 in 2.0 mi WSW 6.9 mph - 0.02 in Rain Rain
1:01 AM 66.2 °F 64.4 °F 94% 29.91 in 3.0 mi SW 4.6 mph - 0.02 in Rain Light Rain
1:25 AM 66.2 °F 64.4 °F 94% 29.92 in 4.0 mi SW 6.9 mph - 0.02 in Rain Light Rain
1:37 AM 64.4 °F 64.4 °F 100% 29.92 in 2.0 mi Variable 5.8 mph - 0.06 in Rain Light Rain
1:47 AM 64.4 °F 64.4 °F 100% 29.93 in 6.0 mi Variable 3.5 mph - 0.06 in Rain Light Rain
1:52 AM 64.9 °F 64.0 °F 97% 29.94 in 6.0 mi Variable 4.6 mph - 0.06 in Rain Light Rain
2:13 AM 60.8 °F 55.4 °F 82% 29.95 in 5.0 mi Variable 4.6 mph - 0.04 in Rain Light Rain
2:52 AM 60.1 °F 57.0 °F 90% 29.96 in 10.0 mi Variable 3.5 mph - 0.04 in   Overcast
3:23 AM 60.8 °F 57.2 °F 88% 29.98 in 10.0 mi NW 4.6 mph - N/A   Overcast
3:52 AM 60.1 °F 55.9 °F 86% 29.99 in 10.0 mi Calm Calm - N/A   Overcast
4:52 AM 57.9 °F 53.1 °F 84% 30.02 in 10.0 mi Variable 3.5 mph - N/A   Overcast
5:52 AM 57.0 °F 50.0 °F 77% 30.04 in 10.0 mi Variable 3.5 mph - N/A   Clear
6:52 AM 55.9 °F 48.0 °F 75% 30.08 in 10.0 mi NW 6.9 mph - N/A   Clear
7:52 AM 57.0 °F 48.0 °F 72% 30.11 in 10.0 mi Variable 4.6 mph - N/A   Clear
8:52 AM 61.0 °F 48.9 °F 64% 30.14 in 10.0 mi Variable 6.9 mph - N/A   Clear
9:52 AM 60.1 °F 46.9 °F 62% 30.16 in 10.0 mi NNW 12.7 mph 21.9 mph N/A   Clear
10:52 AM 62.1 °F 46.9 °F 58% 30.19 in 10.0 mi NNW 8.1 mph 20.7 mph N/A   Clear
11:52 AM 63.0 °F 46.0 °F 54% 30.19 in 10.0 mi North 8.1 mph 18.4 mph N/A   Clear
12:52 PM 63.0 °F 45.0 °F 52% 30.19 in 10.0 mi NNW 11.5 mph 18.4 mph N/A   Clear
1:52 PM 63.0 °F 45.0 °F 52% 30.19 in 10.0 mi Variable 6.9 mph 16.1 mph N/A   Clear
2:52 PM 62.1 °F 44.1 °F 52% 30.20 in 10.0 mi North 8.1 mph - N/A   Clear
3:52 PM 62.1 °F 43.0 °F 50% 30.23 in 10.0 mi Variable 4.6 mph - N/A   Clear
4:52 PM 60.1 °F 44.1 °F 55% 30.25 in 10.0 mi NE 5.8 mph - N/A   Clear
5:52 PM 57.9 °F 44.1 °F 60% 30.27 in 10.0 mi North 5.8 mph - N/A   Clear
6:52 PM 55.9 °F 46.0 °F 69% 30.28 in 10.0 mi North 3.5 mph - N/A   Clear
7:52 PM 57.0 °F 48.0 °F 72% 30.30 in 10.0 mi NE 3.5 mph - N/A   Clear
8:52 PM 57.0 °F 48.0 °F 72% 30.32 in 10.0 mi NE 5.8 mph - N/A   Clear
9:52 PM 55.9 °F 48.0 °F 75% 30.33 in 10.0 mi NE 4.6 mph - N/A   Clear
10:52 PM 55.9 °F 46.0 °F 69% 30.35 in 10.0 mi NE 3.5 mph - N/A   Clear
11:52 PM 57.0 °F 45.0 °F 64% 30.35 in 10.0 mi NE 8.1 mph - N/A   Clear